356  
ASUS44 KMOB 230312  
RWRMOB  
REGIONAL WEATHER ROUNDUP  
NATIONAL WEATHER SERVICE MOBILE AL  
1000 PM CDT SUN OCT 22 2017  
 
NOTE: "FAIR" INDICATES FEW OR NO CLOUDS BELOW 12,000 FEET WITH NO  
SIGNIFICANT WEATHER AND/OR S TO VISIBILITY
.  
 
* THESE STATIONS ARE PART OF THE UNIVERSITY OF SOUTH ALABAMA  
MESONET AND ARE NOT UNDER NWS OR FAA QUALITY CONTROL.
 
 
ALZ061>064-230400-  
COASTAL ALABAMA  
 
CITY SKY/WX TMP DP RH WIND PRES REMARKS
 
MOBILE REG APT PTCLDY 69 68 96 E5 29.95F  
BROOKLEY FIELD CLOUDY 72 71 97 E13 29.95F  
USA CAMPUS* NOT AVBL  
DOG RIVER* NOT AVBL  
 
 
CITY SKY/WX TMP DP RH WIND PRES REMARKS
 
GULF SHORES CLOUDY 69 69 100 E9 29.97F  
 

 
 
ALZ051>060-230400-  
INTERIOR SOUTHWEST AND SOUTH CENTRAL ALABAMA  
 
CITY SKY/WX TMP DP RH WIND PRES REMARKS
 
GREENVILLE HVY RAIN 72 69 90 SE13G24 30.00F FOG  
EVERGREEN LGT RAIN 69 68 96 CALM 30.01F  
ATMORE* N/A N/A N/A N/A E7 31.82F  
ANDALUSIA/OPP HVY RAIN 73 70 90 CALM 30.04F FOG  
ANDALUSIA* N/A 70 70 100 SE5 30.05S  
FLORALA APT HVY RAIN 72 70 93 NW5 30.06F FOG  
FLORALA* N/A 72 70 94 SW7 30.73F  
 

 
 
FLZ001>006-230400-  
WESTERN FLORIDA PANHANDLE  
 
CITY SKY/WX TMP DP RH WIND PRES REMARKS
 
PENSACOLA CLOUDY 73 69 87 E9 30.00F  
NAS PENSACOLA LGT RAIN 72 70 93 E7 29.98F  
MILTON CLOUDY 69 N/A N/A E8 30.01F  
WHTNG S FIELD CLOUDY 73 68 84 E9 30.01F  
 
 
CITY SKY/WX TMP DP RH WIND PRES REMARKS
 
JAY* NOT AVBL  
DUKE FIELD HVY RAIN 71 69 95 NW13 N/A  
CRESTVIEW HVY RAIN 71 69 93 NW8 30.05F FOG  
VALPARAISO HVY RAIN 73 70 92 NW8 30.01F FOG  
DESTIN HVY RAIN 79 74 84 VRB5 29.99F  
 

 
 
MSZ076-079-230400-  
INTERIOR SOUTHEAST MISSISSIPPI  
 
CITY SKY/WX TMP DP RH WIND PRES REMARKS
 
LEAKESVILLE* NOT AVBL  
AGRICOLA* N/A 66 66 100 W2 29.97  
 

 
 
MARINE OBSERVATIONS  
 
STATION/POSITION TIME TEMP WIND PRES WAVE
 
AIR SEA DIR/SP/G HT/PER  
(UTC) (F) (DEG/KT/KT) (MB) (FT/S)  
PASCAGOULA 0242 72 90/ 6/ 8 1014.0R  
PETIT BOIS ISLND 0242 73 100/ 12/ 17 1014.5F  
GRAND BAY 0130 70 90/ 11 1015.0F  
KATRINA CUT 0230 73 90/ 19 1013.5F  
CEDAR POINT 0230 72 100/ 13 1014.6F  
E DAUPHIN ISLAND 0200 72 70/ 12/ 13 1014.9F  
MIDDLE BAY LIGHT 0230 71 100/ 16 1014.6F  
USCG MOBILE BAY 0242 71 75 90/ 7/ 10 1013.8F  
STATE DOCKS 0242 70 75 1013.7F  
MEAHER PARK 0230 69 70/ 3 1013.9F  
WEEKS BAY 0145 70 1015.0F  
FORT MORGAN 0242 71 100/ 12/ 15 N/A  
12 S ORANGE BCH 0150 79 150/ 12/ 14 1015.4R 6/ 8  
PENSACOLA BAY 0242 72 75 1016.3F  
64 S DAUPHIN ISL 0240 78 81 50/ 10/ 14 1014.4S  
67 S FORT MORGAN 0230 76 10/ 8 1014.9S  
 

 
 
SELECTED LOCATIONS ACROSS THE REGION  
 
CITY SKY/WX TMP DP RH WIND PRES REMARKS
 
NEW ORLEANS CLEAR 67 63 87 NW9 30.04R  
GULFPORT MOCLDY 69 69 100 W3 29.98R  
PASCAGOULA AP PTCLDY 69 66 90 NW5 29.96R  
PASCAGOULA* NOT AVBL  
HATTIESBURG CLOUDY 69 68 96 W10 30.02R  
LAUREL CLOUDY 66 64 94 NW5 30.02R  
MERIDIAN CLOUDY 69 68 96 W7 29.99R  
JACKSON CLEAR 64 61 90 NW5 30.03R  
MONTGOMERY HVY RAIN 72 68 87 S3 30.05R FOG  
TROY HVY RAIN 71 70 96 S5 30.06R FOG  
ASHFORD* N/A 70 70 100 SE5 30.05S  
DOTHAN LGT RAIN 76 71 85 SE8 30.08F  
PANAMA CITY LGT RAIN 73 71 93 E5 30.02F  
 

 
 
 
 
CLICK HERE TO GO TO PREVIOUS BULLETINS.

The Nexlab AL Page
The Nexlab FL Page
The Nexlab MS Page Main Text Page